Location: Detroit
(42.3310°N, 83.0460°W)
Time: 01:04:44
(UTC-04:00)

A-11 Canister half - Pass Details

Date: 13 February 2023
Orbit: 1526 x 1682 km, 47.3° (Epoch: 20 March)

Event Time Altitude Azimuth Distance (km) Brightness Sun altitude
Rises 08:21:18 0° 292° (WNW) 4,679 10.9 7.7°
Reaches altitude 10° 08:24:19 10° 293° (WNW) 3,698 10.4 8.2°
Maximum altitude 08:33:41 85° 22° (NNE) 1,553 9.3 9.8°
Drops below altitude 10° 08:43:15 10° 112° (ESE) 3,770 13.7 11.3°
Sets 08:46:22 0° 113° (ESE) 4,773 13.6 11.8°
